Tracking 29892 objects as of 21-Nov-2024
HD Live streaming from Space Station
objects crossing your sky now

THORAD AGENA D DEB

Track THORAD AGENA D DEB now!
10-day predictions


NORAD ID: 42523
Int'l Code: 1970-025SD
Perigee: 968.2 km
Apogee: 1,005.5 km
Inclination: 100.0 °
Period: 104.7 minutes
Semi major axis: 7357 km
RCS: Unknown
Launch date: April 8, 1970
Source: United States (US)
Launch site: AIR FORCE WESTERN TEST RANGE (AFWTR)

Note: This is SATELLITE DEBRIS
Your satellite tracking list
Your tracking list is empty




NASA's NSSDC Master Catalog

Two Line Element Set (TLE):
1 42523U 70025SD  24324.19851547  .00000940  00000-0  10244-2 0  9991
2 42523  99.9699  46.8199 0025346 298.0572  92.1032 13.75539905551262
Source of the keplerian elements: AFSPC